• In Belarus
  • List of Countries
  • For 7 days
  • Water Temperature
  • Satellite Maps
  • Weather Map
  • Weather Widgets
  • user-avatar
    Login

    Hourly Weather Jartypory

    Today, 22 July, Sunday

    Time Temperature Precipitation Wind Pressure Humidity
    00:00 +18°C° 0 mm 1 mps 745 mmHg 76%
    01:00 +18°C° 0 mm 1 mps 745 mmHg 79%
    02:00 +18°C° 0 mm 1 mps 745 mmHg 81%
    03:00 +18°C° 0 mm 1 mps 745 mmHg 83%
    04:00 +18°C° 0 mm 1 mps 745 mmHg 84%
    05:00 +19°C° 0 mm 1 mps 745 mmHg 79%
    06:00 +21°C° 0 mm 1 mps 745 mmHg 74%
    07:00 +23°C° 0 mm 1 mps 745 mmHg 68%
    08:00 +25°C° 0 mm 1 mps 745 mmHg 63%
    09:00 +26°C° 0 mm 1 mps 745 mmHg 58%
    10:00 +27°C° 0 mm 2 mps 745 mmHg 52%
    11:00 +28°C° 0 mm 2 mps 745 mmHg 50%
    12:00 +28°C° 0 mm 2 mps 745 mmHg 48%
    13:00 +29°C° 0 mm 2 mps 745 mmHg 43%
    14:00 +29°C° 0 mm 2 mps 744 mmHg 44%
    15:00 +29°C° 0 mm 3 mps 744 mmHg 46%
    16:00 +29°C° 0 mm 3 mps 744 mmHg 47%
    17:00 +28°C° 0 mm 3 mps 744 mmHg 54%
    18:00 +26°C° 0 mm 2 mps 744 mmHg 60%
    19:00 +25°C° 0 mm 2 mps 744 mmHg 67%
    20:00 +24°C° 0 mm 2 mps 745 mmHg 72%
    21:00 +21°C° 0 mm 2 mps 745 mmHg 76%
    22:00 +20°C° 0 mm 2 mps 745 mmHg 81%
    23:00 +20°C° 0 mm 2 mps 745 mmHg 84%

    Tomorrow, 23 July, Monday

    Time Temperature Precipitation Wind Pressure Humidity
    00:00 +19°C° 0 mm 2 mps 745 mmHg 88%
    01:00 +18°C° 0 mm 3 mps 745 mmHg 91%
    02:00 +18°C° 0 mm 3 mps 745 mmHg 92%
    03:00 +17°C° 0 mm 3 mps 745 mmHg 93%
    04:00 +17°C° 0 mm 3 mps 745 mmHg 94%
    05:00 +18°C° 0 mm 3 mps 745 mmHg 88%
    06:00 +20°C° 0 mm 3 mps 745 mmHg 83%
    07:00 +21°C° 0 mm 4 mps 745 mmHg 77%
    08:00 +23°C° 0.1 mm 4 mps 745 mmHg 72%
    09:00 +25°C° 0.1 mm 4 mps 745 mmHg 66%
    10:00 +27°C° 0.1 mm 5 mps 745 mmHg 61%
    11:00 +27°C° 0.3 mm 5 mps 745 mmHg 59%
    12:00 +28°C° 0.3 mm 5 mps 745 mmHg 58%
    13:00 +29°C° 0.3 mm 5 mps 745 mmHg 56%
    14:00 +28°C° 0.2 mm 5 mps 745 mmHg 57%
    15:00 +28°C° 0.2 mm 6 mps 745 mmHg 58%
    16:00 +28°C° 0.2 mm 6 mps 745 mmHg 58%
    17:00 +27°C° 0 mm 5 mps 745 mmHg 64%
    18:00 +26°C° 0 mm 5 mps 745 mmHg 69%
    19:00 +23°C° 0 mm 4 mps 745 mmHg 74%
    20:00 +22°C° 0 mm 4 mps 745 mmHg 77%
    21:00 +21°C° 0 mm 4 mps 745 mmHg 79%
    22:00 +20°C° 0 mm 4 mps 746 mmHg 81%
    23:00 +20°C° 0 mm 4 mps 745 mmHg 83%

    Day after tomorrow, 24 July, Tuesday

    Time Temperature Precipitation Wind Pressure Humidity
    00:00 +19°C° 0 mm 4 mps 745 mmHg 84%
    01:00 +18°C° 0 mm 4 mps 745 mmHg 85%
    02:00 +18°C° 0 mm 4 mps 745 mmHg 86%
    03:00 +18°C° 0 mm 4 mps 745 mmHg 86%
    04:00 +17°C° 0 mm 4 mps 745 mmHg 86%
    05:00 +19°C° 0 mm 4 mps 746 mmHg 81%
    06:00 +20°C° 0 mm 4 mps 746 mmHg 77%
    07:00 +21°C° 0 mm 5 mps 746 mmHg 73%
    08:00 +23°C° 0 mm 5 mps 746 mmHg 67%
    09:00 +25°C° 0 mm 5 mps 746 mmHg 61%
    10:00 +27°C° 0 mm 5 mps 746 mmHg 56%
    11:00 +27°C° 0.1 mm 5 mps 746 mmHg 54%
    12:00 +28°C° 0.1 mm 5 mps 746 mmHg 53%
    13:00 +29°C° 0.1 mm 5 mps 745 mmHg 51%
    14:00 +28°C° 0.1 mm 5 mps 745 mmHg 52%
    15:00 +28°C° 0.1 mm 5 mps 745 mmHg 53%
    16:00 +28°C° 0.1 mm 6 mps 745 mmHg 54%
    17:00 +27°C° 0.1 mm 5 mps 745 mmHg 61%
    18:00 +26°C° 0.1 mm 4 mps 745 mmHg 67%
    19:00 +24°C° 0.1 mm 3 mps 745 mmHg 73%
    20:00 +22°C° 0 mm 3 mps 745 mmHg 77%
    21:00 +21°C° 0 mm 3 mps 745 mmHg 81%
    22:00 +20°C° 0 mm 3 mps 745 mmHg 85%
    23:00 +19°C° 0 mm 3 mps 745 mmHg 87%

    25 July, Wednesday

    Time Temperature Precipitation Wind Pressure Humidity
    00:00 +19°C° 0 mm 3 mps 745 mmHg 88%
    01:00 +18°C° 0 mm 3 mps 745 mmHg 89%
    02:00 +18°C° 0 mm 3 mps 745 mmHg 91%
    03:00 +17°C° 0 mm 3 mps 745 mmHg 92%
    04:00 +17°C° 0 mm 3 mps 745 mmHg 94%
    05:00 +18°C° 0 mm 3 mps 745 mmHg 90%
    06:00 +20°C° 0 mm 3 mps 745 mmHg 87%
    07:00 +21°C° 0 mm 3 mps 746 mmHg 83%
    08:00 +24°C° 0.2 mm 3 mps 746 mmHg 79%
    09:00 +25°C° 0.2 mm 3 mps 746 mmHg 75%
    10:00 +26°C° 0.2 mm 3 mps 746 mmHg 71%
    11:00 +27°C° 1.1 mm 3 mps 745 mmHg 69%
    12:00 +27°C° 1.1 mm 3 mps 745 mmHg 67%
    13:00 +28°C° 1.1 mm 3 mps 745 mmHg 65%
    14:00 +28°C° 0.7 mm 3 mps 745 mmHg 65%
    15:00 +28°C° 0.7 mm 3 mps 745 mmHg 65%
    16:00 +28°C° 0.7 mm 3 mps 745 mmHg 65%
    17:00 +27°C° 0.1 mm 2 mps 745 mmHg 70%
    18:00 +26°C° 0.1 mm 2 mps 745 mmHg 75%
    19:00 +24°C° 0.1 mm 2 mps 745 mmHg 80%
    20:00 +23°C° 0 mm 2 mps 745 mmHg 84%
    21:00 +21°C° 0 mm 2 mps 745 mmHg 88%
    22:00 +20°C° 0 mm 2 mps 745 mmHg 92%
    23:00 +20°C° 0 mm 2 mps 745 mmHg 93%

    26 July, Thursday

    Time Temperature Precipitation Wind Pressure Humidity
    00:00 +20°C° 0 mm 2 mps 745 mmHg 94%
    01:00 +19°C° 0 mm 2 mps 745 mmHg 95%
    02:00 +19°C° 0 mm 2 mps 745 mmHg 95%
    03:00 +19°C° 0 mm 2 mps 745 mmHg 96%
    04:00 +19°C° 0 mm 2 mps 745 mmHg 96%
    05:00 +20°C° 0 mm 2 mps 745 mmHg 92%
    06:00 +23°C° 0 mm 2 mps 746 mmHg 87%
    07:00 +24°C° 0 mm 2 mps 746 mmHg 82%
    08:00 +25°C° 0.3 mm 2 mps 746 mmHg 77%
    09:00 +27°C° 0.3 mm 2 mps 746 mmHg 72%
    10:00 +28°C° 0.3 mm 2 mps 746 mmHg 67%
    11:00 +28°C° 1 mm 2 mps 746 mmHg 65%
    12:00 +29°C° 1 mm 2 mps 746 mmHg 64%
    13:00 +29°C° 1 mm 2 mps 745 mmHg 62%
    14:00 +29°C° 0.6 mm 3 mps 745 mmHg 63%
    15:00 +29°C° 0.6 mm 3 mps 745 mmHg 64%
    16:00 +29°C° 0.6 mm 3 mps 745 mmHg 65%
    17:00 +28°C° 0.6 mm 3 mps 745 mmHg 71%
    18:00 +27°C° 0.6 mm 2 mps 745 mmHg 77%
    19:00 +25°C° 0.6 mm 2 mps 745 mmHg 83%
    20:00 +25°C° 0 mm 2 mps 745 mmHg 86%
    21:00 +24°C° 0 mm 2 mps 746 mmHg 89%
    22:00 +23°C° 0 mm 2 mps 746 mmHg 92%
    23:00 +23°C° 0.1 mm 2 mps 746 mmHg 92%

    27 July, Friday

    Time Temperature Precipitation Wind Pressure Humidity
    00:00 +21°C° 0.1 mm 2 mps 746 mmHg 93%
    01:00 +21°C° 0.1 mm 2 mps 746 mmHg 94%
    02:00 +21°C° 0 mm 2 mps 746 mmHg 94%
    03:00 +20°C° 0 mm 2 mps 746 mmHg 94%
    04:00 +20°C° 0 mm 2 mps 746 mmHg 94%
    05:00 +21°C° 0 mm 2 mps 746 mmHg 90%
    06:00 +24°C° 0 mm 2 mps 746 mmHg 86%
    07:00 +25°C° 0 mm 2 mps 747 mmHg 82%
    08:00 +26°C° 0.3 mm 2 mps 746 mmHg 75%
    09:00 +28°C° 0.3 mm 2 mps 746 mmHg 68%
    10:00 +29°C° 0.3 mm 2 mps 746 mmHg 62%
    11:00 +30°C° 0.1 mm 2 mps 746 mmHg 58%
    12:00 +31°C° 0.1 mm 2 mps 746 mmHg 54%
    13:00 +32°C° 0.1 mm 2 mps 746 mmHg 51%
    14:00 +31°C° 0.1 mm 2 mps 746 mmHg 52%
    15:00 +31°C° 0.1 mm 2 mps 746 mmHg 54%
    16:00 +31°C° 0.1 mm 2 mps 746 mmHg 56%
    17:00 +30°C° 0.2 mm 2 mps 746 mmHg 61%
    18:00 +28°C° 0.2 mm 2 mps 746 mmHg 67%
    19:00 +27°C° 0.2 mm 2 mps 746 mmHg 72%
    20:00 +26°C° 0 mm 2 mps 746 mmHg 76%
    21:00 +25°C° 0 mm 2 mps 746 mmHg 79%
    22:00 +24°C° 0 mm 2 mps 746 mmHg 82%
    23:00 +24°C° 0.3 mm 2 mps 746 mmHg 84%
    Show more